Weather History for Peru, IN

Change the Weather History Date:

Saturday, November 17, 2012

  Actual Average Record
Temperature  
Mean Temperature 39 °F -  
Max Temperature 53 °F 46 °F 64 °F (2013)
Min Temperature 25 °F 32 °F 14 °F (1997)
Degree Days  
Heating Degree Days 26    
Moisture  
Dew Point 31 °F    
Average Humidity 75    
Maximum Humidity 94    
Minimum Humidity 49    
Precipitation  
Precipitation 0.00 in - - ()
Sea Level Pressure  
Sea Level Pressure 30.53 in    
Wind  
Wind Speed 5 mph (East)    
Max Wind Speed 10 mph    
Max Gust Speed -    
Visibility 9 miles    
Events      
Averages and records for this station are not official NWS values.
T = Trace of Precipitation, MM = Missing Value Source: NWS Daily Summary

Daily Weather History Graph

Daily Weather History Graph

Search for Another Location

Airport:

Trip Planner

Search our weather history database for the weather conditions in past years. The results will help you decide how hot, cold, wet, or windy it might be!

Date:

Astronomy

Nov. 17, 2012 Rise Set
Actual Time 7:34 AM EST 5:24 PM EST
Civil Twilight 7:04 AM EST 5:54 PM EST
Nautical Twilight 6:31 AM EST 6:27 PM EST
Astronomical Twilight 5:59 AM EST 6:59 PM EST
Moon 11:18 AM EST (11/17) 9:34 PM EST (11/17)
Length of Visible Light 10h 49m
Length of Day
9h 50m
Waxing Crescent, 20% of the Moon is Illuminated
Nov 17
Waxing Crescent
Nov 20
First Quarter
Nov 28
Full
Dec 6
Last Quarter
Dec 13
New

Hourly Weather History & Observations

Time (EST) Temp. Windchill Dew Point Humidity Pressure Visibility Wind Dir Wind Speed Gust Speed Precip Events Conditions
12:55 AM 32.4 °F 29.1 °F 26.8 °F 80% 30.51 in 10.0 mi ESE 3.5 mph - N/A   Clear
1:55 AM 32.4 °F 27.9 °F 26.8 °F 80% 30.50 in 10.0 mi ESE 4.6 mph - N/A   Clear
2:55 AM 31.1 °F 27.7 °F 26.8 °F 84% 30.51 in 10.0 mi ESE 3.5 mph - N/A   Clear
3:55 AM 29.8 °F - 25.7 °F 85% 30.52 in 10.0 mi Calm Calm - N/A   Clear
4:55 AM 27.1 °F 21.8 °F 24.8 °F 91% 30.53 in 8.0 mi East 4.6 mph - N/A   Clear
5:12 AM 26.6 °F 22.6 °F 24.8 °F 93% 30.53 in 4.0 mi ENE 3.5 mph - N/A   Clear
5:22 AM 26.6 °F 22.6 °F 23.0 °F 86% 30.54 in 5.0 mi NE 3.5 mph - N/A   Clear
5:55 AM 25.7 °F 19.0 °F 23.0 °F 89% 30.56 in 8.0 mi North 5.8 mph - N/A   Clear
6:55 AM 25.7 °F 19.0 °F 24.1 °F 94% 30.56 in 6.0 mi NE 5.8 mph - N/A   Clear
7:55 AM 27.5 °F 21.1 °F 25.3 °F 92% 30.57 in 5.0 mi East 5.8 mph - N/A   Clear
8:55 AM 32.5 °F - 29.5 °F 88% 30.59 in 5.0 mi Calm Calm - N/A   Clear
9:55 AM 38.8 °F 36.5 °F 32.5 °F 78% 30.59 in 9.0 mi East 3.5 mph - N/A   Clear
10:29 AM 41.0 °F 38.0 °F 33.8 °F 76% 30.56 in 10.0 mi ESE 4.6 mph - N/A   Clear
10:55 AM 43.3 °F 40.7 °F 35.4 °F 74% 30.59 in 10.0 mi ESE 4.6 mph - N/A   Clear
11:55 AM 47.8 °F - 35.8 °F 63% 30.57 in 10.0 mi SE 5.8 mph - N/A   Clear
12:55 PM 51.4 °F - 34.9 °F 53% 30.55 in 10.0 mi SSE 6.9 mph - N/A   Clear
1:55 PM 52.5 °F - 34.3 °F 50% 30.53 in 10.0 mi ESE 6.9 mph - N/A   Clear
2:55 PM 53.4 °F - 34.9 °F 49% 30.51 in 10.0 mi ESE 10.4 mph - N/A   Clear
3:55 PM 53.2 °F - 34.5 °F 49% 30.51 in 10.0 mi ESE 6.9 mph - N/A   Clear
4:55 PM 50.4 °F - 35.6 °F 57% 30.50 in 10.0 mi East 4.6 mph - N/A   Clear
5:55 PM 44.2 °F 41.8 °F 33.4 °F 66% 30.51 in 10.0 mi ENE 4.6 mph - N/A   Clear
6:55 PM 44.6 °F 40.2 °F 34.0 °F 66% 30.51 in 10.0 mi East 8.1 mph - N/A   Clear
7:55 PM 42.3 °F 37.3 °F 34.0 °F 72% 30.50 in 10.0 mi East 8.1 mph - N/A   Clear
8:55 PM 40.5 °F 34.6 °F 33.4 °F 76% 30.50 in 10.0 mi East 9.2 mph - N/A   Clear
9:55 PM 40.8 °F 36.9 °F 33.3 °F 74% 30.49 in 10.0 mi East 5.8 mph - N/A   Clear
10:55 PM 40.5 °F 36.5 °F 32.9 °F 74% 30.49 in 10.0 mi East 5.8 mph - N/A   Clear
11:55 PM 39.4 °F 33.8 °F 32.5 °F 76% 30.48 in 10.0 mi East 8.1 mph - N/A   Clear